www.pogodaiklimat.ru

Погода и климат >> Архив погоды >> Норвегия >> Сортланн


ПОГОДА в Сортланне

  • Прогноз погоды в Сортланне
  • Монитор погоды в Сортланне

АРХИВ ПОГОДЫ в Сортланне

Время (UTC), дата Ветер
(напр.,м/с)
 
Видим.   Явления Облачность Т
(С)
Тd
(С)
f
(%)
Тe
(С)
Тes
(С)
Комфортность P
(гПа)
Po
(гПа)
Тmin
(С)
Tmax
(С)
R
(мм)
R24
(мм)
S
(см)
15 14.07 С 5 30 км 10/8 300 м
[Sc Ac lent]
+10.8 +9.2 90 +8 +8 1016.1 1015.5
18 14.07 С 6
{7}
30 км 10/6 300 м
[Cu Sc Ac lent]
+10.8 +9.7 93 +7 +7 1015.5 1014.9 +9.0 +11.0
21 14.07 С 4 30 км 10/4 300 м
[Cu Sc Ac lent]
+10.1 +9.8 98 +7 +7 1015.2 1014.6
00 15.07 СЗ 2
{6}
30 км 9/9 600 м
[Cu Sc]
+9.1 +9 +9 1014.9 1014.3
03 15.07 С 2 60 км 10/10 600 м
[Cu Sc]
+8.9 +8 +8 1014.7 1014.1
06 15.07 С 5
{7}
60 км 9/6 300 м
[Cu Sc Ac trans Ci sp]
+9.9 +8 +8 1014.7 1014.1 +8.5 +10.8
09 15.07 С 6 60 км 10/9 600 м
[Frnb]
+10.5 +10.2 98 +7 +7 1014.7 1014.1
12 15.07 С 7
{10}
60 км 10/9 600 м
[Frnb]
+10.5 +8 +8 1014.8 1014.2
15 15.07 С 7 30 км 10/8 300 м
[Sc Ac lent]
+10.7 +9.8 94 +7 +7 1015.4 1014.8
18 15.07 С 6
{10}
30 км 10/8 300 м
[Cu Sc Ac lent]
+10.3 +9.5 95 +7 +7 1015.6 1015.0 +9.9 +10.9
21 15.07 С 5 30 км 10/5 300 м
[Cu Sc Ac lent]
+10.3 +9.4 94 +7 +7 1016.0 1015.4
00 16.07 СЗ 3
{3}
60 км 5/3 300 м
[Cu Sc Ac lent Ci sp]
+8.6 +8.2 97 +6 +6 1016.4 1015.8
03 16.07 СВ 3 60 км 6/3 300 м
[Sc diur, vesp Ac trans Ci fib]
+8.7 +7 +8 1016.9 1016.3
06 16.07 С 5
{6}
60 км 6/3 300 м
[Sc diur, vesp Ac trans Ci fib]
+9.4 +8.3 93 +6 +7 1017.0 1016.4 +8.0 +10.2
09 16.07 С 5 60 км 8/5 600 м
[Cu Sc Ac As Ci fib]
+10.3 +9.4 94 +7 +9 1017.1 1016.5
12 16.07 С 8
{9}
60 км 10/9 600 м
[Cu Sc]
+10.6 +10.1 97 +7 +7 1017.2 1016.6
15 16.07 С 9 30 км 8/4 600 м
[Cu Sc Ac lent Ci sp]
+10.6 +9.7 94 +6 +7 1017.6 1017.0
18 16.07 С 5
{10}
30 км 9/5 300 м
[Cu Sc Ac lent Ci fib]
+9.9 +9.4 97 +7 +7 1017.7 1017.1 +9.6 +10.8
21 16.07 С 2 30 км {морось} 10/4 300 м
[Cu Sc Ac lent]
+9.6 +9 +9 1017.5 1016.9
00 17.07 С 5
{6}
60 км 10/10 300 м
[Cu Sc]
+9.4 +7 +7 1017.3 1016.7
03 17.07 С 5 60 км 10/10 300 м
[Cu Sc]
+9.3 +7 +7 1017.0 1016.4
06 17.07 С 5
{7}
60 км 10/10 300 м
[Cu Sc]
+9.4 +7 +7 1016.4 1015.8 +9.0 +10.0
09 17.07 С 6 60 км 10/10 300 м
[Cu Sc]
+9.6 +7 +7 1016.1 1015.5
12 17.07 С 6 60 км 10/10 300 м
[Cu Sc]
+10.3 +10.0 98 +7 +7 1015.9 1015.3
15 17.07 С 7 60 км 10/10 600 м
[Cu Sc]
+10.6 +9.7 94 +7 +7 1015.2 1014.6
18 17.07 С 5
{8}
65 км 10/10 600 м
[Cu Sc]
+10.7 +9.6 93 +8 +8 1014.8 1014.2 +9.1 +10.9
21 17.07 С 3 65 км 10/10 600 м
[Cu Sc]
+9.8 +9 +9 1014.3 1013.7
00 18.07 С 1
{8}
70 км 9/6 300 м
[Sc Ac inh]
+8.9 +10 +10 1014.5 1013.9
03 18.07 С 3 70 км 4/1 600 м
[Cu Sc Ac und]
+9.1 +8.8 98 +6 +7 1014.1 1013.5
06 18.07 С 4
{7}
35 км 1/1 1000 м
[Cu Sc]
+10.3 +8.6 89 +8 +10 1013.7 1013.1 +7.8
09 18.07 С 7 35 км 1/0
[]
+11.3 +9.6 89 +8 +10 1013.6 1013.0
12 18.07 С 7 35 км 1/0
[]
+12.7 +10.8 88 +10 +12 1013.2 1012.6
15 18.07 С 8 >70 км 1/0
[]
+13.3 +11.5 89 +10 +11 1013.0 1012.4
18 18.07 С 5
{10}
>70 км 1/0
[Ci fib]
+12.4 +12.4 100 +10 +11 1012.7 1012.1 +10.4 +13.4
21 18.07 СЗ 4 >70 км ясно +11.2 +10 +10 1012.3 1011.7
00 19.07 С 3
{7}
55 км 3/0 2000 м
[Ac lent]
+9.6 +8 +8 1012.2 1011.6
03 19.07 СЗ 3 55 км 3/1 1000 м
[Cu hum Ci sp]
+11.6 +11 +11 1011.7 1011.1
06 19.07 С 3
{5}
65 км ясно +11.7 +11 +14 1011.4 1010.8 +9.6 +12.2
09 19.07 С 3 >70 км ясно +13.3 +13.0 98 +12 +19 1010.9 1010.3
12 19.07 С 4
{5}
70 км 1/1 1500 м
[Cu hum]
+15.3 +12.2 82 +14 +20 1010.5 1009.9
15 19.07 С 4 >70 км 1/1 1500 м
[Cu hum]
+19.1 +11.4 61 +20 +23 1010.1 1009.5
18 19.07 СЗ 4
{6}
>70 км 1/1 1500 м
[Cu hum]
+19.1 +10.9 59 +20 +21 1010.1 1009.5 +11.8 +20.8
21 19.07 СЗ 1 >70 км ясно +15.7 +11.5 76 +16 +16 1010.4 1009.8
00 20.07 С 2
{5}
>70 км 1/0 1500 м
[Ac trans]
+13.5 +11.7 89 +13 +13 1010.7 1010.1
03 20.07 С 1 >70 км 8/6 1000 м
[Cu med, cong Ac trans]
+13.7 +12.1 90 +14 +14 1010.9 1010.3
06 20.07 Ю 4
{5}
>70 км 6/4 1000 м
[Cu med, cong Ac trans Ci fib]
+14.5 +12.9 90 +13 +14 1011.4 1010.8 +12.7 +19.3
09 20.07 Ю 4 >70 км 10/10 1000 м
[Cu Sc]
+19.5 +14.8 74 +21 +21 комфорт 1012.4 1011.8
12 20.07 Ю 4
{8}
65 км 9/8 1000 м
[Cu Sc Ac lent]
+15.2 +15 +15 1013.9 1013.3
15 20.07 Ю 4 70 км {ливн. осадки} 1/1 1000 м
[Cu med, cong Ac trans Ci fib]
+17.0 +15.9 93 +17 +20 1014.0 1013.4
18 20.07 Ю 3
{7}
65 км {ливн. осадки} 3/1 1000 м
[Cu hum Ac trans Cs]
+12.9 +12 +13 1014.1 1013.5 +12.5 +19.7 0.0
21 20.07 С 2 900 м туман на расстоянии 6/3 100 м
[St Ac trans Cs]
+11.5 +11 +11 1014.3 1013.7
00 21.07 С 4 500 м туман ?/? +10.8 +9 +9 1013.4 1012.8
03 21.07 С 3 500 м туман ?/? +10.3 +9 +9 1012.4 1011.8
06 21.07 С 4
{6}
500 м туман ?/? +10.5 +9 +9 1011.4 1010.8 +10.2 +12.9
09 21.07 С 4 >70 км {туман} 4/0
[Ac As Ci fib]
+13.1 +12 +17 1010.6 1010.0
12 21.07 С 2
{5}
65 км {туман} 10/1 1000 м
[Sc diur, vesp Ac As]
+14.7 +15 +17 1010.9 1010.3

 

Местоположение метеостанции Сортланн (Норвегия): широта 68.70 долгота 15.42 высота над уровнем моря 3 м.

В архиве по умолчанию представлена погода в Сортланне за последнюю неделю. Архивные данные за месяц целиком и за предыдущие месяцы, начиная с января 2011 года, Вы можете получить, выбрав интересующий диапазон дат из раскрывающегося списка и нажав кнопку "Ввод!".


*Определитесь, кто Вы:
робот инопланетянин человек

Внимание! Время в таблицах - всемирное. Для получения местного времени необходимо прибавить поправку, которая равна 1 ч.

Смотрите также архив погоды в соседних городах и на ближайших метеорологических станциях:

Погода в Стокмаркнес аэропорту (Норвегия) (21 км)
Погода в Бё (Норвегия) (41 км)
Погода на Маяке Rotvaer (Норвегия) (42 км)
Погода в Харстаде (Норвегия) (46 км)
Погода в Аэропорту Харстад/Нарвик (Норвегия) (56 км)
Погода в Сволваер аэропорту (Норвегия) (59 км)
Погода на Маяке Skrova (Норвегия) (69 км)
Погода на Аннёйа (Норвегия) (72 км)
Погода в Драге (Норвегия) (77 км)
Погода в Нарвике (Норвегия) (85 км)

Пояснения к столбцам:

Ветер - указаны скорость ветра в м/с - средняя за 10 мин, порывы в срок и между сроками (в фигурных скобках) и направление, откуда дует ветер: С - северный, СВ - северо-восточный, В - восточный, ЮВ - юго-восточный, Ю - южный, ЮЗ - юго-западный, З - западный, СЗ - северо-западный.
Видимость - горизонтальная дальность видимости в метрах или километрах. При видимости от 1 до 10 км при отсутствии осадков обычно наблюдается дымка, при ухудшении видимости до 1 км и менее - туман. В сухую погоду видимость может ухудшаться дымом, пылью или мглою.
Явления - указаны атмосферные явления, наблюдавшиеся в срок или в последний час перед сроком; фигурными скобками обозначены явления, наблюдавшиеся между сроками (за 1-3 часа до срока); квадратными скобками обозначены град или гололедные отложения с указанием их диаметра в мм.
Облачность - указаны через наклонную черту общая и нижняя облачность в баллах и высота нижней границы облаков в метрах; квадратными скобками обозначены формы облаков: Ci - перистые, Cs - перисто-слоистые, Cc - перисто-кучевые, Ac - высококучевые, As - высокослоистые, Sc - слоисто-кучевые, Ns - слоисто-дождевые, Cu - кучевые, Cb - кучево-дождевые. Подробнее классификацию облаков см. в Атласе облаков (PDF).
T - Температура воздуха - температура, измеренная на высоте 2 м над землей.
Td - Температура точки росы - температура, при понижении до которой содержащийся в воздухе водяной пар достигнет насыщения.
f - Относительная влажность воздуха - влажноcть воздуха, измеренная на высоте 2 м над землей.
Te - Эффективная температура - температура, которую ощущает одетый по сезону человек в тени. Характеристика душности погоды. При расчете учитывается влияние влажности воздуха и скорости ветра на теплоощущения человека.
Tes - Эффективная температура на солнце - температура, которую ощущает человек, с поправкой на солнечный нагрев. Характеристика знойности погоды. Зависит от высоты солнца над горизонтом, облачности и скорости ветра. Ночью, в пасмурную погоду, а также при ветре 12 м/с и более поправка равна нулю.
P - Атмосферное давление - приведенное к уровню моря атмосферное давление.
Po - Атмосферное давление - измеренное на уровне метеостанции атмосферное давление.
Tmin - Минимальная температура - минимум температуры воздуха на высоте 2 м над землей.
Tmax - Максимальная температура - максимум температуры воздуха на высоте 2 м над землей.
R - Количество осадков - Количество выпавших осадков за период времени, мм. При наведении курсора мыши на число - период времени, за который выпало указанное количество осадков.
R24 - Количество осадков - Количество выпавших осадков за 24 часа, мм.
S - Снежный покров - Высота снежного покрова, см. При наведении курсора мыши на число - состояние снежного покрова и степень покрытия местности в баллах.